FENGYUN 1C DEB, 37695

Orbit data source: Space-Track

FENGYUN 1C DEB, 37695 is space debris in SSO originally from a launch on Mon, 10 May 1999 UTC launched from the Taiyaun Space Center, China (TSC). Fengyun 1C debris stems from the Chinese weather satellite Fengyun-1C, which was intentionally destroyed by a Chinese anti-satellite missile in 2007. This event dramatically increased the amount of space debris, with thousands of trackable fragments posing hazards to satellites and human spaceflight. The Fengyun 1C debris cloud has become a focal point in discussions about space sustainability and the need for international regulations to prevent the creation of new debris.

Loading next visibility...
Identifier
37695, 1999-025ELL
Orbit
SSO
Country
Flag of CNCN / PRC
Related business
Manufacturer
Unknown
Mission
Spacecraft
Bus & Motor
Unknown
Mass
Unknown
Launch date (UTC)
1999-05-10 (27 years ago)
Launch vehicle
Unknown
Launch site
Taiyaun Space Center, China (TSC)
Object type
Payload
Rocket body
Debris
Shape & HBR
Unknown shape, 0.1 m
Radar Cross Section
Small (<0.1 m²)

Expand to show TLE details & history
Last TLE update: 3 days ago

TLE from 3 days ago
0 FENGYUN 1C DEB
1 37695U 99025ELL 26121.83859834  .00001405  00000-0  85344-3 0  9992
2 37695  98.1878 149.0868 0460194 245.7194 299.1075 13.65527959911630
Epoch: 2026-05-01T20:07Z
TLE epoch observation values (Epoch: 2026-05-01T20:07:34.896Z)
Latitude
-0.20798°
Longitude
167.39653°
Altitude
865.369 km
Speed
7.496 km/s
True Right ascension
21h 56m 13s
True Declination
0° 12' 24"
Sunlit
Object was in daylight at epoch
Visualization orbit readout
Latitude
Unknown
Longitude
Unknown
Altitude
Unknown
Speed
Unknown
Apparent Right ascension
Unknown
Apparent Declination
Unknown
Sunlit
N/A
Visualization observer readout
Local Sidereal Time
20:50:43
Azimuth
Unknown
Elevation
Unknown
Doppler factor
Unknown
Orbital elements
Apogee altitude
1,352.999 km
Perigee altitude
672.74 km
Semi-major axis
7,391.006 km
Eccentricity
0.04602
Inclination
98.1878°
RAAN
149.0868°
Arg. of periapsis
245.7194°
True anomaly
294.37299°
Mean anomaly
299.1075°
Eccentric anomaly
296.75303°
Mean motion
3.41576 °/min
Orbital period
105.39 mins
BSTAR
0.00085344
Loading maneuver chart data...
Computing Atmospheric mass density...

Documentation

Showing up to 5 results
|